STARLINK-1997 (47592 NORAD) Tracking and Keplerian Element Data

This shows tracking and keplerian element data for the satellite.

Feedback or suggestion? Click here.




ElementValue
Catalog47592
NameSTARLINK-1997
Epoch Orbit180
Epoch Day99.91667824
Epoch Year2021
RAAN178.6516
Inclination53.054
Eccentricity0.000137
Argument of Perigee93.0178
Mean Anonmoly37.9192
Mean Motion15.06394948
Decay Rate-5.15E-06
L11 47592U 21009AW 21099.91667824 -.00000515 00000-0 -15701-4 0 9994
L22 47592 53.0540 178.6516 0001370 93.0178 37.9192 15.06394948 1808

Live tracking and technical data element details for STARLINK-1997 (NORAD 47592). STARLINK-1997 can be tracked NOW for your location showing map with azimuth and elevation plus other details from your city location.

Track the satellite on the map from your city or location and see movement details for azimuth, elevation, latitude, longitude, range, height, and movement on the map or in text.







IsCatalogInMostPopularTable: catalog: 47592, numindb: 18
Update: records affected: 1



GetName: 47592 STARLINK-1997

Hit Count: updated at: Sat, 10 Apr 2021 18:36:25 GMT